Date String (YYYY-MM-DD hh:mm:ss) UTC,Instrument flags,Ambient pressure (hPa),Sample flow (lpm),Bypass flow (lpm),Sample temperature (°C),Ambient temperature (°C),ASC tube jacket temperature (°C),LED temperature (°C),Box temperature (°C),Sample RH (%),Span deviation,Mass concentration (μg/m³),Mass concentration (μg/m³),Mass concentration (μg/m³)
DateTimeUTC,F1_M11,P_M11,Q1_M11,Q2_M11,T1_M11,T2_M11,T3_M11,T4_M11,T5_M11,U1_M11,ZSPAN_M11,X0_M11,X2_M11,X1_M11
2021-10-10 02:00:00,,0821.7,5.00,0.00,29.4,28.6,00.0,38.4,31.1,10.9,0000.0,0002.10,0001.37,0001.05
2021-10-10 02:01:00,,0821.7,4.99,0.00,29.4,28.6,00.0,38.4,31.1,10.9,0000.0,0002.29,0001.43,0001.07
2021-10-10 02:02:00,,0821.8,5.00,0.00,29.4,28.6,00.0,38.4,31.1,10.8,0000.0,0002.27,0001.43,0001.09
2021-10-10 02:03:00,,0821.9,5.01,0.00,29.3,28.6,00.0,38.4,31.1,10.7,0000.0,0002.16,0001.41,0001.11
2021-10-10 02:04:00,,0821.8,5.00,0.00,29.4,28.6,00.0,38.4,31.1,10.7,0000.0,0002.11,0001.41,0001.12
2021-10-10 02:05:00,,0821.8,5.00,0.00,29.4,28.6,00.0,38.4,31.1,10.6,0000.0,0002.07,0001.39,0001.12
2021-10-10 02:06:00,,0821.8,5.00,0.00,29.4,28.6,00.0,38.4,31.1,10.6,0000.0,0002.07,0001.40,0001.12
2021-10-10 02:07:00,,0821.8,4.99,0.00,29.4,28.7,00.0,38.4,31.2,10.7,0000.0,0002.28,0001.41,0001.12
2021-10-10 02:08:00,,0821.8,5.00,0.00,29.4,28.6,00.0,38.4,31.1,10.7,0000.0,0002.79,0001.46,0001.12
2021-10-10 02:09:00,,0821.8,5.01,0.00,29.4,28.6,00.0,38.4,31.1,10.6,0000.0,0002.81,0001.47,0001.12
2021-10-10 02:10:00,,0821.8,4.99,0.00,29.3,28.6,00.0,38.4,31.1,10.6,0000.0,0002.79,0001.46,0001.12
2021-10-10 02:11:00,,0821.8,5.00,0.00,29.3,28.6,00.0,38.4,31.1,10.7,0000.0,0002.74,0001.45,0001.11
2021-10-10 02:12:00,,0821.8,5.01,0.00,29.3,28.6,00.0,38.4,31.1,10.8,0000.0,0002.50,0001.37,0001.08
2021-10-10 02:13:00,,0821.8,5.00,0.00,29.3,28.5,00.0,38.4,31.1,10.8,0000.0,0002.41,0001.34,0001.07
2021-10-10 02:14:00,,0821.8,5.00,0.00,29.3,28.5,00.0,38.4,31.1,10.8,0000.0,0002.50,0001.32,0001.05
2021-10-10 02:15:00,,0821.9,5.00,0.00,29.3,28.6,00.0,38.4,31.1,10.8,0000.0,0002.66,0001.30,0001.04
2021-10-10 02:16:00,,0821.8,4.99,0.00,29.3,28.6,00.0,38.4,31.1,10.8,0000.0,0002.76,0001.29,0001.05
2021-10-10 02:17:00,,0821.8,5.00,0.00,29.3,28.6,00.0,38.4,31.1,10.9,0000.0,0002.74,0001.29,0001.05
2021-10-10 02:18:00,,0821.8,5.01,0.00,29.4,28.6,00.0,38.4,31.1,10.9,0000.0,0002.46,0001.25,0001.04
2021-10-10 02:19:00,,0821.8,5.00,0.00,29.4,28.7,00.0,38.4,31.2,11.0,0000.0,0001.98,0001.22,0001.04
2021-10-10 02:20:00,,0821.8,4.99,0.00,29.4,28.7,00.0,38.4,31.2,11.0,0000.0,0001.97,0001.21,0001.05
2021-10-10 02:21:00,,0821.8,5.00,0.00,29.4,28.7,00.0,38.5,31.2,10.9,0000.0,0002.00,0001.21,0001.05
2021-10-10 02:22:00,,0821.9,4.99,0.00,29.5,28.7,00.0,38.5,31.2,10.9,0000.0,0002.07,0001.23,0001.06
2021-10-10 02:23:00,,0821.8,5.00,0.00,29.5,28.8,00.0,38.5,31.2,10.9,0000.0,0002.17,0001.25,0001.06
2021-10-10 02:24:00,,0821.8,5.01,0.00,29.5,28.8,00.0,38.5,31.3,10.9,0000.0,0003.27,0001.25,0001.05
2021-10-10 02:25:00,,0821.8,5.01,0.00,29.5,28.8,00.0,38.5,31.3,10.8,0000.0,0003.15,0001.24,0001.04
2021-10-10 02:26:00,,0821.8,4.99,0.00,29.5,28.8,00.0,38.5,31.3,10.8,0000.0,0003.03,0001.25,0001.04
2021-10-10 02:27:00,,0821.8,4.99,0.00,29.5,28.8,00.0,38.5,31.3,10.9,0000.0,0002.89,0001.27,0001.04
2021-10-10 02:28:00,,0821.9,5.00,0.00,29.5,28.8,00.0,38.6,31.3,10.9,0000.0,0002.98,0001.31,0001.06
2021-10-10 02:29:00,,0822.0,5.00,0.00,29.6,28.8,00.0,38.6,31.3,10.9,0000.0,0003.14,0001.34,0001.07
2021-10-10 02:30:00,,0821.9,5.00,0.00,29.6,28.8,00.0,38.6,31.3,11.0,0000.0,0004.00,0001.38,0001.09
2021-10-10 02:31:00,,0822.0,5.00,0.00,29.6,28.8,00.0,38.6,31.4,11.0,0000.0,0004.27,0001.36,0001.10
2021-10-10 02:32:00,,0822.1,5.00,0.00,29.6,28.8,00.0,38.6,31.4,11.0,0000.0,0004.72,0001.38,0001.11
2021-10-10 02:33:00,,0822.1,5.00,0.00,29.6,28.8,00.0,38.6,31.4,10.9,0000.0,0006.12,0001.39,0001.13
2021-10-10 02:34:00,,0822.0,5.00,0.00,29.6,28.8,00.0,38.6,31.4,10.9,0000.0,0006.34,0001.45,0001.15
2021-10-10 02:35:00,,0822.1,5.00,0.00,29.6,28.9,00.0,38.7,31.4,10.9,0000.0,0005.50,0001.45,0001.17
2021-10-10 02:36:00,,0821.8,5.00,0.00,29.6,28.9,00.0,38.7,31.4,10.8,0000.0,0005.18,0001.46,0001.18
2021-10-10 02:37:00,,0821.9,5.00,0.00,29.6,28.9,00.0,38.7,31.4,10.8,0000.0,0005.23,0001.47,0001.20
2021-10-10 02:38:00,,0821.9,4.99,0.00,29.7,28.9,00.0,38.7,31.4,10.7,0000.0,0005.25,0001.48,0001.20
2021-10-10 02:39:00,,0822.1,5.00,0.00,29.7,28.9,00.0,38.7,31.4,10.7,0000.0,0005.22,0001.47,0001.19
2021-10-10 02:40:00,,0822.1,5.00,0.00,29.7,28.9,00.0,38.7,31.4,10.7,0000.0,0005.11,0001.47,0001.20
2021-10-10 02:41:00,,0822.1,5.02,0.00,29.7,28.9,00.0,38.7,31.4,10.2,0000.0,0004.26,0001.44,0001.18
2021-10-10 02:42:00,,0822.1,5.00,0.00,29.7,28.9,00.0,38.7,31.4,10.0,0000.0,0004.05,0001.48,0001.16
2021-10-10 02:43:00,,0822.1,5.00,0.00,29.6,28.8,00.0,38.7,31.4,10.0,0000.0,0003.46,0001.45,0001.14
2021-10-10 02:44:00,,0822.1,4.99,0.00,29.6,28.8,00.0,38.7,31.4,10.1,0000.0,0002.04,0001.40,0001.11
2021-10-10 02:45:00,,0822.1,5.02,0.00,29.6,28.8,00.0,38.7,31.4,10.0,0000.0,0001.83,0001.36,0001.09
2021-10-10 02:46:00,,0822.1,4.99,0.00,29.6,28.8,00.0,38.7,31.4,10.1,0000.0,0001.82,0001.35,0001.08
2021-10-10 02:47:00,,0822.1,5.00,0.00,29.6,28.8,00.0,38.7,31.3,10.1,0000.0,0001.80,0001.34,0001.06
2021-10-10 02:48:00,,0822.1,5.01,0.00,29.6,28.8,00.0,38.7,31.3,10.2,0000.0,0001.71,0001.31,0001.05
2021-10-10 02:49:00,,0822.1,4.99,0.00,29.6,28.8,00.0,38.7,31.3,10.2,0000.0,0001.71,0001.30,0001.04
2021-10-10 02:50:00,,0822.2,5.00,0.00,29.6,28.8,00.0,38.7,31.3,10.3,0000.0,0001.70,0001.26,0001.02
2021-10-10 02:51:00,,0822.2,5.00,0.00,29.6,28.8,00.0,38.7,31.3,10.0,0000.0,0001.63,0001.21,0000.99
2021-10-10 02:52:00,,0822.1,5.00,0.00,29.6,28.8,00.0,38.7,31.4,10.0,0000.0,0001.68,0001.24,0001.00
2021-10-10 02:53:00,,0822.1,4.99,0.00,29.6,28.8,00.0,38.7,31.4,10.2,0000.0,0001.69,0001.23,0001.01
2021-10-10 02:54:00,,0822.2,4.99,0.00,29.7,28.8,00.0,38.7,31.4,10.2,0000.0,0001.76,0001.25,0001.01
2021-10-10 02:55:00,,0822.2,5.01,0.00,29.7,28.9,00.0,38.7,31.4,10.3,0000.0,0001.84,0001.27,0001.01
2021-10-10 02:56:00,,0822.1,5.01,0.00,29.7,28.9,00.0,38.7,31.4,10.3,0000.0,0001.83,0001.25,0001.00
2021-10-10 02:57:00,,0822.1,5.00,0.00,29.7,28.9,00.0,38.7,31.4,10.4,0000.0,0001.87,0001.25,0001.00
2021-10-10 02:58:00,,0822.1,5.00,0.00,29.7,28.9,00.0,38.7,31.4,10.2,0000.0,0001.94,0001.29,0001.01
2021-10-10 02:59:00,,0822.1,4.99,0.00,29.7,28.9,00.0,38.8,31.4,10.2,0000.0,0002.05,0001.33,0001.01
